Regional Weather Roundup
Issued by NWS

Home | Current Version | Previous Version | Text Only | Print | Product List | Glossary On
Versions: 1 2 3 4 5 6 7 8 9 10 11 12 13 14 15 16 17 18 19 20 21 22 23 24 25 26 27 28 29 30 31 32 33 34 35 36 37 38 39 40 41 42 43 44 45 46 47 48 49 50
000
ASUS43 KDTX 271501
RWRMI
MICHIGAN HOURLY REGIONAL WEATHER ROUNDUP
NATIONAL WEATHER SERVICE DETROIT/PONTIAC MI
1100 AM EDT SAT AUG 27 2016

NOTE: "FAIR" INDICATES FEW OR NO CLOUDS BELOW 12,000 FEET WITH NO
SIGNIFICANT WEATHER AND/OR OBSTRUCTION TO VISIBILITY.

MIZ047>049-052>055-059>063-066>070-074>076-081>083-271600-
SOUTHEAST LOWER MICHIGAN

CITY           SKY/WX    TMP DP  RH WIND       PRES   REMARKS
ADRIAN         CLOUDY    76  65  68 E5        30.14F
ALMA           RAIN      65  65 100 W10       30.19F
ANN ARBOR      MOSUNNY   80  66  62 MISG      30.14F
CARO           CLOUDY    74  68  82 SE5       30.16S
DETROIT CITY   CLOUDY    79  69  71 SE14      30.16S
DETROIT        PTSUNNY   80  67  64 SE12      30.16S
FLINT          CLOUDY    77  67  71 SE7G18    30.15S
GROSSE ILE     MOSUNNY   80  67  63 SE6       30.15S
HILLSDALE      PTSUNNY   77  64  64 SE7       30.13F
HOWELL         PTSUNNY   76  67  73 SE15      30.15S

CITY           SKY/WX    TMP DP  RH WIND       PRES   REMARKS
JACKSON        CLOUDY    75  65  70 SE8       30.13F
LAMBERTVILLE   MOSUNNY   80  65  59 CALM      30.14F
LANSING        CLOUDY    69  65  86 NW18G28   30.16S
LAPEER         FAIR      75  67  77 SE8       30.16F
MASON          PTSUNNY   75  64  68 SE9G17    30.14S
MONROE         MOSUNNY   80  69  67 SE8       30.14S
MT. CLEMENS    PTSUNNY   76  71  84 SE8       30.14F
PONTIAC        CLOUDY    76  65  68 SE9       30.15F
PORT HURON     PTSUNNY   77  70  78 SE8       30.17F
TRI CITIES     HVY RAIN  68  67  96 NW6       30.19R FOG
MIDLAND        HVY RAIN  66  65  98 NW7       30.20R
TROY           CLOUDY    79  65  63 SE7       30.18S
SAGINAW HB     LGT RAIN  72  66  83 CALM      30.15S
$$
MIZ043>046-050>051-056>058-064>065-071>073-077>080-271600-
SOUTHWEST LOWER MICHIGAN

CITY           SKY/WX    TMP DP  RH WIND       PRES   REMARKS
BATTLE CREEK   RAIN      65  65 100 NW5       30.17R FOG
BENTON HARBOR  LGT RAIN  71  68  90 E8        30.08F
BIG RAPIDS     RAIN      65  64  97 E8        30.14F
COLDWATER      RAIN      72  65  77 W10       30.14R
FREMONT        LGT RAIN  63  62  98 E6        30.11F
HOLLAND        LGT RAIN  68  66  93 SE8       30.11F
GRAND RAPIDS   LGT RAIN  65  62  90 SE10      30.14F
IONIA          LGT RAIN  64  62  96 NE3       30.16F
KALAMAZOO      TSTM      67  64  90 VRB6      30.15R
LUDINGTON      LGT RAIN  62  62 100 E7        30.12F
MARSHALL       CLOUDY    72  64  78 SE6       30.13S
MOUNT PLEASANT HVY RAIN  65  64  98 CALM      30.18F
MUSKEGON       LGT RAIN  66  65  96 E9        30.10F
SOUTH HAVEN    RAIN      69  68  98 SE9       30.09F
$$
MIZ016>042-271600-
NORTHERN LOWER MICHIGAN

CITY           SKY/WX    TMP DP  RH WIND       PRES   REMARKS
ALPENA         LGT RAIN  70  62  76 E5        30.20S
BEAVER ISLAND  CLOUDY    65  64  94 SE3       30.18S
BELLAIRE       LGT RAIN  64  62  91 CALM      30.17S
CADILLAC       RAIN      62  60  94 E5        30.18S
CHARLEVOIX     LGT RAIN  65  62  91 SE7       30.19S
FRANKFORT      LGT RAIN  63  59  89 E3        30.15S
GAYLORD        LGT RAIN  65  60  84 SE7       30.19F
GRAYLING       LGT RAIN  62  61  96 CALM      30.20F
HARBOR SPRINGS DRIZZLE   64  62  94 E8        30.18S
HOUGHTON LAKE  LGT RAIN  64  62  93 SE3       30.20F
MANISTEE       RAIN      62  61  96 E5        30.13F
OSCODA         LGT RAIN  71  67  86 SW3       30.18S
PELLSTON       LGT RAIN  64  60  87 CALM      30.19S
ROGERS CITY    CLOUDY    68  62  82 CALM      30.20S
TRAVERSE CITY  LGT RAIN  64  61  90 SE5       30.15F
$$
MIZ007>008-015-271600-
EASTERN UPPER MICHIGAN

CITY           SKY/WX    TMP DP  RH WIND       PRES   REMARKS
KINROSS        LGT RAIN  62  57  83 E8        30.20F
MACKINAC ISLAN LGT RAIN  63  63 100 E5        30.19S
NEWBERRY       LGT RAIN  60  58  94 CALM      30.18S
S. S. MARIE    CLOUDY    62  56  80 E6        30.19F
$$
MIZ004>006-011>014-085-271600-
CENTRAL UPPER MICHIGAN

CITY           SKY/WX    TMP DP  RH WIND       PRES   REMARKS
MANISTIQUE     LGT RAIN  66  64  92 SE8       30.15S
ESCANABA       CLOUDY    65  61  87 E3        30.14F
MENOMINEE      RAIN     N/A N/A N/A S6        30.14
SAWYER-GWINN   PTSUNNY   63  59  88 SE6       30.16S
$$
MIZ001>003-009>011-084-271600-
WESTERN UPPER MICHIGAN

CITY           SKY/WX    TMP DP  RH WIND       PRES   REMARKS
IRON MOUNTAIN  CLOUDY    63  58  83 CALM      30.13F
HOUGHTON       PTSUNNY   62  57  83 SE8       30.14S
IRONWOOD       MOSUNNY   66  54  65 S7        30.14R
$$

ABBREVIATIONS USED IN REMARKS
   TC - TEMPERATURE IN CELSIUS
  WCI - WIND CHILL INDEX
   HX - HEAT INDEX
  VSB - VISIBILITY




USA.gov is the U.S. government's official web portal to all federal, state and local government web resources and services.